Year,Month,Day,Hour,Minute,Value (Times are PST for temperature in C)
2015,01,30,00,00,1.90
2015,01,30,00,01,1.90
2015,01,30,00,02,1.90
2015,01,30,00,03,1.90
2015,01,30,00,04,1.90
2015,01,30,00,05,1.90
2015,01,30,00,06,1.90
2015,01,30,00,07,1.80
2015,01,30,00,08,1.80
2015,01,30,00,09,1.80
2015,01,30,00,10,1.80
2015,01,30,00,11,1.80
2015,01,30,00,12,1.80
2015,01,30,00,13,1.80
2015,01,30,00,14,1.80
2015,01,30,00,15,1.80
2015,01,30,00,16,1.80
2015,01,30,00,17,1.80
2015,01,30,00,18,1.80
2015,01,30,00,19,1.80
2015,01,30,00,20,1.80
2015,01,30,00,21,1.80
2015,01,30,00,22,1.80
2015,01,30,00,23,1.80
2015,01,30,00,24,1.80
2015,01,30,00,25,1.70
2015,01,30,00,26,1.70
2015,01,30,00,27,1.70
2015,01,30,00,28,1.70
2015,01,30,00,29,1.70
2015,01,30,00,30,1.70
2015,01,30,00,31,1.70
2015,01,30,00,32,1.70
2015,01,30,00,33,1.70
2015,01,30,00,34,1.70
2015,01,30,00,35,1.70
2015,01,30,00,36,1.70
2015,01,30,00,37,1.70
2015,01,30,00,38,1.70
2015,01,30,00,39,1.70
2015,01,30,00,40,1.70
2015,01,30,00,41,1.70
2015,01,30,00,42,1.60
2015,01,30,00,43,1.60
2015,01,30,00,44,1.60
2015,01,30,00,45,1.60
2015,01,30,00,46,1.60
2015,01,30,00,47,1.60
2015,01,30,00,48,1.60
2015,01,30,00,49,1.60
2015,01,30,00,50,1.60
2015,01,30,00,51,1.60
2015,01,30,00,52,1.60
2015,01,30,00,53,1.60
2015,01,30,00,54,1.60
2015,01,30,00,55,1.60
2015,01,30,00,56,1.60
2015,01,30,00,57,1.60
2015,01,30,00,58,1.60
2015,01,30,00,59,1.60
2015,01,30,01,00,1.60
2015,01,30,01,01,1.60
2015,01,30,01,02,1.50
2015,01,30,01,03,1.60
2015,01,30,01,04,1.60
2015,01,30,01,05,1.50
2015,01,30,01,06,1.50
2015,01,30,01,07,1.50
2015,01,30,01,08,1.50
2015,01,30,01,09,1.50
2015,01,30,01,10,1.50
2015,01,30,01,11,1.60
2015,01,30,01,12,1.60
2015,01,30,01,13,1.60
2015,01,30,01,14,1.60
2015,01,30,01,15,1.60
2015,01,30,01,16,1.60
2015,01,30,01,17,1.60
2015,01,30,01,18,1.60
2015,01,30,01,19,1.60
2015,01,30,01,20,1.60
2015,01,30,01,21,1.60
2015,01,30,01,22,1.60
2015,01,30,01,23,1.60
2015,01,30,01,24,1.60
2015,01,30,01,25,1.60
2015,01,30,01,26,1.60
2015,01,30,01,27,1.60
2015,01,30,01,28,1.60
2015,01,30,01,29,1.60
2015,01,30,01,30,1.60
2015,01,30,01,31,1.60
2015,01,30,01,32,1.60
2015,01,30,01,33,1.60
2015,01,30,01,34,1.60
2015,01,30,01,35,1.60
2015,01,30,01,36,1.60
2015,01,30,01,37,1.60
2015,01,30,01,38,1.60
2015,01,30,01,39,1.60
2015,01,30,01,40,1.60
2015,01,30,01,41,1.60
2015,01,30,01,42,1.70
2015,01,30,01,43,1.70
2015,01,30,01,44,1.70
2015,01,30,01,45,1.70
2015,01,30,01,46,1.70
2015,01,30,01,47,1.70
2015,01,30,01,48,1.70
2015,01,30,01,49,1.70
2015,01,30,01,50,1.70
2015,01,30,01,51,1.70
2015,01,30,01,52,1.70
2015,01,30,01,53,1.70
2015,01,30,01,54,1.70
2015,01,30,01,55,1.70
2015,01,30,01,56,1.70
2015,01,30,01,57,1.70
2015,01,30,01,58,1.70
2015,01,30,01,59,1.70
2015,01,30,02,00,1.70
2015,01,30,02,01,1.70
2015,01,30,02,02,1.70
2015,01,30,02,03,1.70
2015,01,30,02,04,1.70
2015,01,30,02,05,1.70
2015,01,30,02,06,1.70
2015,01,30,02,07,1.70
2015,01,30,02,08,1.70
2015,01,30,02,09,1.70
2015,01,30,02,10,1.70
2015,01,30,02,11,1.70
2015,01,30,02,12,1.80
2015,01,30,02,13,1.80
2015,01,30,02,14,1.80
2015,01,30,02,15,1.80
2015,01,30,02,16,1.80
2015,01,30,02,17,1.80
2015,01,30,02,18,1.80
2015,01,30,02,19,1.70
2015,01,30,02,20,1.70
2015,01,30,02,21,1.70
2015,01,30,02,22,1.70
2015,01,30,02,23,1.70
2015,01,30,02,24,1.70
2015,01,30,02,25,1.70
2015,01,30,02,26,1.70
2015,01,30,02,27,1.70
2015,01,30,02,28,1.70
2015,01,30,02,29,1.70
2015,01,30,02,30,1.70
2015,01,30,02,31,1.70
2015,01,30,02,32,1.80
2015,01,30,02,33,1.80
2015,01,30,02,34,1.80
2015,01,30,02,35,1.80
2015,01,30,02,36,1.80
2015,01,30,02,37,1.80
2015,01,30,02,38,1.80
2015,01,30,02,39,1.80
2015,01,30,02,40,1.80
2015,01,30,02,41,1.80
2015,01,30,02,42,1.80
2015,01,30,02,43,1.80
2015,01,30,02,44,1.80
2015,01,30,02,45,1.80
2015,01,30,02,46,1.80
2015,01,30,02,47,1.80
2015,01,30,02,48,1.80
2015,01,30,02,49,1.80
2015,01,30,02,50,1.80
2015,01,30,02,51,1.70
2015,01,30,02,52,1.70
2015,01,30,02,53,1.70
2015,01,30,02,54,1.70
2015,01,30,02,55,1.70
2015,01,30,02,56,1.70
2015,01,30,02,57,1.70
2015,01,30,02,58,1.70
2015,01,30,02,59,1.70
2015,01,30,03,00,1.70
2015,01,30,03,01,1.70
2015,01,30,03,02,1.60
2015,01,30,03,03,1.60
2015,01,30,03,04,1.60
2015,01,30,03,05,1.60
2015,01,30,03,06,1.60
2015,01,30,03,07,1.60
2015,01,30,03,08,1.60
2015,01,30,03,09,1.60
2015,01,30,03,10,1.60
2015,01,30,03,11,1.60
2015,01,30,03,12,1.60
2015,01,30,03,13,1.60
2015,01,30,03,14,1.60
2015,01,30,03,15,1.60
2015,01,30,03,16,1.60
2015,01,30,03,17,1.60
2015,01,30,03,18,1.60
2015,01,30,03,19,1.60
2015,01,30,03,20,1.60
2015,01,30,03,21,1.60
2015,01,30,03,22,1.60
2015,01,30,03,23,1.60
2015,01,30,03,24,1.60
2015,01,30,03,25,1.60
2015,01,30,03,26,1.60
2015,01,30,03,27,1.60
2015,01,30,03,28,1.60
2015,01,30,03,29,1.60
2015,01,30,03,30,1.60
2015,01,30,03,31,1.60
2015,01,30,03,32,1.60
2015,01,30,03,33,1.60
2015,01,30,03,34,1.60
2015,01,30,03,35,1.60
2015,01,30,03,36,1.60
2015,01,30,03,37,1.60
2015,01,30,03,38,1.60
2015,01,30,03,39,1.60
2015,01,30,03,40,1.60
2015,01,30,03,41,1.60
2015,01,30,03,42,1.60
2015,01,30,03,43,1.60
2015,01,30,03,44,1.60
2015,01,30,03,45,1.60
2015,01,30,03,46,1.60
2015,01,30,03,47,1.60
2015,01,30,03,48,1.60
2015,01,30,03,49,1.60
2015,01,30,03,50,1.60
2015,01,30,03,51,1.60
2015,01,30,03,52,1.60
2015,01,30,03,53,1.60
2015,01,30,03,54,1.60
2015,01,30,03,55,1.60
2015,01,30,03,56,1.60
2015,01,30,03,57,1.60
2015,01,30,03,58,1.60
2015,01,30,03,59,1.60
2015,01,30,04,00,1.60
2015,01,30,04,01,1.60
2015,01,30,04,02,1.60
2015,01,30,04,03,1.60
2015,01,30,04,04,1.60
2015,01,30,04,05,1.60
2015,01,30,04,06,1.60
2015,01,30,04,07,1.60
2015,01,30,04,08,1.60
2015,01,30,04,09,1.60
2015,01,30,04,10,1.60
2015,01,30,04,11,1.70
2015,01,30,04,12,1.70
2015,01,30,04,13,1.70
2015,01,30,04,14,1.70
2015,01,30,04,15,1.70
2015,01,30,04,16,1.70
2015,01,30,04,17,1.70
2015,01,30,04,18,1.70
2015,01,30,04,19,1.70
2015,01,30,04,20,1.70
2015,01,30,04,21,1.70
2015,01,30,04,22,1.70
2015,01,30,04,23,1.70
2015,01,30,04,24,1.70
2015,01,30,04,25,1.70
2015,01,30,04,26,1.70
2015,01,30,04,27,1.70
2015,01,30,04,28,1.70
2015,01,30,04,29,1.70
2015,01,30,04,30,1.70
2015,01,30,04,31,1.70
2015,01,30,04,32,1.80
2015,01,30,04,33,1.80
2015,01,30,04,34,1.80
2015,01,30,04,35,1.80
2015,01,30,04,36,1.80
2015,01,30,04,37,1.80
2015,01,30,04,38,1.80
2015,01,30,04,39,1.80
2015,01,30,04,40,1.80
2015,01,30,04,41,1.80
2015,01,30,04,42,1.80
2015,01,30,04,43,1.80
2015,01,30,04,44,1.80
2015,01,30,04,45,1.80
2015,01,30,04,46,1.80
2015,01,30,04,47,1.80
2015,01,30,04,48,1.80
2015,01,30,04,49,1.80
2015,01,30,04,50,1.80
2015,01,30,04,51,1.80
2015,01,30,04,52,1.90
2015,01,30,04,53,1.90
2015,01,30,04,54,1.90
2015,01,30,04,55,1.90
2015,01,30,04,56,1.90
2015,01,30,04,57,1.90
2015,01,30,04,58,1.90
2015,01,30,04,59,1.90
2015,01,30,05,00,1.90
2015,01,30,05,01,1.90
2015,01,30,05,02,1.90
2015,01,30,05,03,1.90
2015,01,30,05,04,2.00
2015,01,30,05,05,2.00
2015,01,30,05,06,2.00
2015,01,30,05,07,2.00
2015,01,30,05,08,2.00
2015,01,30,05,09,2.00
2015,01,30,05,10,2.00
2015,01,30,05,11,2.00
2015,01,30,05,12,2.00
2015,01,30,05,13,2.00
2015,01,30,05,14,2.00
2015,01,30,05,15,2.00
2015,01,30,05,16,2.10
2015,01,30,05,17,2.10
2015,01,30,05,18,2.10
2015,01,30,05,19,2.10
2015,01,30,05,20,2.10
2015,01,30,05,21,2.10
2015,01,30,05,22,2.10
2015,01,30,05,23,2.10
2015,01,30,05,24,2.10
2015,01,30,05,25,2.20
2015,01,30,05,26,2.20
2015,01,30,05,27,2.20
2015,01,30,05,28,2.20
2015,01,30,05,29,2.20
2015,01,30,05,30,2.20
2015,01,30,05,31,2.20
2015,01,30,05,32,2.20
2015,01,30,05,33,2.20
2015,01,30,05,34,2.20
2015,01,30,05,35,2.20
2015,01,30,05,36,2.20
2015,01,30,05,37,2.20
2015,01,30,05,38,2.20
2015,01,30,05,39,2.20
2015,01,30,05,40,2.20
2015,01,30,05,41,2.20
2015,01,30,05,42,2.20
2015,01,30,05,43,2.20
2015,01,30,05,44,2.20
2015,01,30,05,45,2.20
2015,01,30,05,46,2.20
2015,01,30,05,47,2.20
2015,01,30,05,48,2.20
2015,01,30,05,49,2.20
2015,01,30,05,50,2.20
2015,01,30,05,51,2.20
2015,01,30,05,52,2.20
2015,01,30,05,53,2.20
2015,01,30,05,54,2.30
2015,01,30,05,55,2.30
2015,01,30,05,56,2.30
2015,01,30,05,57,2.30
2015,01,30,05,58,2.30
2015,01,30,05,59,2.30
2015,01,30,06,00,2.30
2015,01,30,06,01,2.30
2015,01,30,06,02,2.30
2015,01,30,06,03,2.30
2015,01,30,06,04,2.30
2015,01,30,06,05,2.30
2015,01,30,06,06,2.30
2015,01,30,06,07,2.30
2015,01,30,06,08,2.30
2015,01,30,06,09,2.30
2015,01,30,06,10,2.30
2015,01,30,06,11,2.30
2015,01,30,06,12,2.30
2015,01,30,06,13,2.30
2015,01,30,06,14,2.30
2015,01,30,06,15,2.30
2015,01,30,06,16,2.30
2015,01,30,06,17,2.30
2015,01,30,06,18,2.30
2015,01,30,06,19,2.20
2015,01,30,06,20,2.20
2015,01,30,06,21,2.20
2015,01,30,06,22,2.30
2015,01,30,06,23,2.30
2015,01,30,06,24,2.30
2015,01,30,06,25,2.30
2015,01,30,06,26,2.30
2015,01,30,06,27,2.30
2015,01,30,06,28,2.30
2015,01,30,06,29,2.30
2015,01,30,06,30,2.30
2015,01,30,06,31,2.30
2015,01,30,06,32,2.30
2015,01,30,06,33,2.30
2015,01,30,06,34,2.30
2015,01,30,06,35,2.30
2015,01,30,06,36,2.30
2015,01,30,06,37,2.30
2015,01,30,06,38,2.30
2015,01,30,06,39,2.30
2015,01,30,06,40,2.30
2015,01,30,06,41,2.30
2015,01,30,06,42,2.30
2015,01,30,06,43,2.30
2015,01,30,06,44,2.30
2015,01,30,06,45,2.30
2015,01,30,06,46,2.30
2015,01,30,06,47,2.30
2015,01,30,06,48,2.30
2015,01,30,06,49,2.30
2015,01,30,06,50,2.30
2015,01,30,06,51,2.30
2015,01,30,06,52,2.30
2015,01,30,06,53,2.30
2015,01,30,06,54,2.30
2015,01,30,06,55,2.30
2015,01,30,06,56,2.30
2015,01,30,06,57,2.30
2015,01,30,06,58,2.30
2015,01,30,06,59,2.30
2015,01,30,07,00,2.30
2015,01,30,07,01,2.30
2015,01,30,07,02,2.30
2015,01,30,07,03,2.30
2015,01,30,07,04,2.30
2015,01,30,07,05,2.30
2015,01,30,07,06,2.30
2015,01,30,07,07,2.30
2015,01,30,07,08,2.30
2015,01,30,07,09,2.30
2015,01,30,07,10,2.30
2015,01,30,07,11,2.30
2015,01,30,07,12,2.40
2015,01,30,07,13,2.40
2015,01,30,07,14,2.40
2015,01,30,07,15,2.40
2015,01,30,07,16,2.40
2015,01,30,07,17,2.40
2015,01,30,07,18,2.40
2015,01,30,07,19,2.40
2015,01,30,07,20,2.40
2015,01,30,07,21,2.40
2015,01,30,07,22,2.40
2015,01,30,07,23,2.40
2015,01,30,07,24,2.40
2015,01,30,07,25,2.40
2015,01,30,07,26,2.40
2015,01,30,07,27,2.40
2015,01,30,07,28,2.40
2015,01,30,07,29,2.40
2015,01,30,07,30,2.40
2015,01,30,07,31,2.40
2015,01,30,07,32,2.40
2015,01,30,07,33,2.40
2015,01,30,07,34,2.50
2015,01,30,07,35,2.50
2015,01,30,07,36,2.50
2015,01,30,07,37,2.50
2015,01,30,07,38,2.50
2015,01,30,07,39,2.50
2015,01,30,07,40,2.50
2015,01,30,07,41,2.50
2015,01,30,07,42,2.50
2015,01,30,07,43,2.50
2015,01,30,07,44,2.50
2015,01,30,07,45,2.50
2015,01,30,07,46,2.50
2015,01,30,07,47,2.50
2015,01,30,07,48,2.50
2015,01,30,07,49,2.50
2015,01,30,07,50,2.50
2015,01,30,07,51,2.50
2015,01,30,07,52,2.50
2015,01,30,07,53,2.50
2015,01,30,07,54,2.50
2015,01,30,07,55,2.50
2015,01,30,07,56,2.50
2015,01,30,07,57,2.50
2015,01,30,07,58,2.50
2015,01,30,07,59,2.50
2015,01,30,08,00,2.50
2015,01,30,08,01,2.50
2015,01,30,08,02,2.50
2015,01,30,08,03,2.50
2015,01,30,08,04,2.50
2015,01,30,08,05,2.50
2015,01,30,08,06,2.50
2015,01,30,08,07,2.50
2015,01,30,08,08,2.50
2015,01,30,08,09,2.50
2015,01,30,08,10,2.50
2015,01,30,08,11,2.50
2015,01,30,08,12,2.50
2015,01,30,08,13,2.50
2015,01,30,08,14,2.50
2015,01,30,08,15,2.50
2015,01,30,08,16,2.50
2015,01,30,08,17,2.50
2015,01,30,08,18,2.50
2015,01,30,08,19,2.50
2015,01,30,08,20,2.50
2015,01,30,08,21,2.50
2015,01,30,08,22,2.50
2015,01,30,08,23,2.50
2015,01,30,08,24,2.50
2015,01,30,08,25,2.50
2015,01,30,08,26,2.50
2015,01,30,08,27,2.60
2015,01,30,08,28,2.60
2015,01,30,08,29,2.60
2015,01,30,08,30,2.50
2015,01,30,08,31,2.60
2015,01,30,08,32,2.60
2015,01,30,08,33,2.50
2015,01,30,08,34,2.50
2015,01,30,08,35,2.50
2015,01,30,08,36,2.50
2015,01,30,08,37,2.50
2015,01,30,08,38,2.50
2015,01,30,08,39,2.50
2015,01,30,08,40,2.50
2015,01,30,08,41,2.50
2015,01,30,08,42,2.50
2015,01,30,08,43,2.50
2015,01,30,08,44,2.60
2015,01,30,08,45,2.60
2015,01,30,08,46,2.60
2015,01,30,08,47,2.60
2015,01,30,08,48,2.60
2015,01,30,08,49,2.60
2015,01,30,08,50,2.60
2015,01,30,08,51,2.60
2015,01,30,08,52,2.60
2015,01,30,08,53,2.60
2015,01,30,08,54,2.60
2015,01,30,08,55,2.60
2015,01,30,08,56,2.60
2015,01,30,08,57,2.60
2015,01,30,08,58,2.60
2015,01,30,08,59,2.60
2015,01,30,09,00,2.60
2015,01,30,09,01,2.60
2015,01,30,09,02,2.60
2015,01,30,09,03,2.60
2015,01,30,09,04,2.60
2015,01,30,09,05,2.60
2015,01,30,09,06,2.60
2015,01,30,09,07,2.60
2015,01,30,09,08,2.60
2015,01,30,09,09,2.70
2015,01,30,09,10,2.70
2015,01,30,09,11,2.70
2015,01,30,09,12,2.70
2015,01,30,09,13,2.70
2015,01,30,09,14,2.70
2015,01,30,09,15,2.70
2015,01,30,09,16,2.70
2015,01,30,09,17,2.70
2015,01,30,09,18,2.80
2015,01,30,09,19,2.80
2015,01,30,09,20,2.80
2015,01,30,09,21,2.80
2015,01,30,09,22,2.80
2015,01,30,09,23,2.80
2015,01,30,09,24,2.80
2015,01,30,09,25,2.80
2015,01,30,09,26,2.80
2015,01,30,09,27,2.80
2015,01,30,09,28,2.80
2015,01,30,09,29,2.80
2015,01,30,09,30,2.80
2015,01,30,09,31,2.80
2015,01,30,09,32,2.80
2015,01,30,09,33,2.80
2015,01,30,09,34,2.80
2015,01,30,09,35,2.80
2015,01,30,09,36,2.80
2015,01,30,09,37,2.90
2015,01,30,09,38,2.90
2015,01,30,09,39,2.90
2015,01,30,09,40,2.90
2015,01,30,09,41,2.90
2015,01,30,09,42,2.90
2015,01,30,09,43,2.90
2015,01,30,09,44,2.90
2015,01,30,09,45,3.00
2015,01,30,09,46,3.00
2015,01,30,09,47,3.10
2015,01,30,09,48,3.10
2015,01,30,09,49,3.20
2015,01,30,09,50,3.20
2015,01,30,09,51,3.20
2015,01,30,09,52,3.20
2015,01,30,09,53,3.20
2015,01,30,09,54,3.20
2015,01,30,09,55,3.20
2015,01,30,09,56,3.20
2015,01,30,09,57,3.20
2015,01,30,09,58,3.10
2015,01,30,09,59,3.10
2015,01,30,10,00,3.10
2015,01,30,10,01,3.10
2015,01,30,10,02,3.10
2015,01,30,10,03,3.20
2015,01,30,10,04,3.20
2015,01,30,10,05,3.20
2015,01,30,10,06,3.20
2015,01,30,10,07,3.20
2015,01,30,10,08,3.30
2015,01,30,10,09,3.30
2015,01,30,10,10,3.30
2015,01,30,10,11,3.30
2015,01,30,10,12,3.30
2015,01,30,10,13,3.30
2015,01,30,10,14,3.30
2015,01,30,10,15,3.40
2015,01,30,10,16,3.40
2015,01,30,10,17,3.40
2015,01,30,10,18,3.40
2015,01,30,10,19,3.40
2015,01,30,10,20,3.40
2015,01,30,10,21,3.40
2015,01,30,10,22,3.40
2015,01,30,10,23,3.40
2015,01,30,10,24,3.40
2015,01,30,10,25,3.40
2015,01,30,10,26,3.40
2015,01,30,10,27,3.40
2015,01,30,10,28,3.40
2015,01,30,10,29,3.50
2015,01,30,10,30,3.50
2015,01,30,10,31,3.50
2015,01,30,10,32,3.50
2015,01,30,10,33,3.50
2015,01,30,10,34,3.50
2015,01,30,10,35,3.50
2015,01,30,10,36,3.50
2015,01,30,10,37,3.50
2015,01,30,10,38,3.50
2015,01,30,10,39,3.50
2015,01,30,10,40,3.50
2015,01,30,10,41,3.50
2015,01,30,10,42,3.60
2015,01,30,10,43,3.60
2015,01,30,10,44,3.60
2015,01,30,10,45,3.60
2015,01,30,10,46,3.70
2015,01,30,10,47,3.70
2015,01,30,10,48,3.70
2015,01,30,10,49,3.70
2015,01,30,10,50,3.80
2015,01,30,10,51,3.80
2015,01,30,10,52,3.80
2015,01,30,10,53,3.90
2015,01,30,10,54,3.90
2015,01,30,10,55,3.90
2015,01,30,10,56,3.90
2015,01,30,10,57,4.00
2015,01,30,10,58,4.00
2015,01,30,10,59,4.00
2015,01,30,11,00,4.00
2015,01,30,11,01,4.00
2015,01,30,11,02,4.00
2015,01,30,11,03,4.00
2015,01,30,11,04,4.00
2015,01,30,11,05,4.10
2015,01,30,11,06,4.10
2015,01,30,11,07,4.10
2015,01,30,11,08,4.10
2015,01,30,11,09,4.20
2015,01,30,11,10,4.20
2015,01,30,11,11,4.20
2015,01,30,11,12,4.30
2015,01,30,11,13,4.30
2015,01,30,11,14,4.30
2015,01,30,11,15,4.30
2015,01,30,11,16,4.30
2015,01,30,11,17,4.40
2015,01,30,11,18,4.40
2015,01,30,11,19,4.50
2015,01,30,11,20,4.50
2015,01,30,11,21,4.60
2015,01,30,11,22,4.60
2015,01,30,11,23,4.60
2015,01,30,11,24,4.70
2015,01,30,11,25,4.70
2015,01,30,11,26,4.70
2015,01,30,11,27,4.80
2015,01,30,11,28,4.80
2015,01,30,11,29,4.90
2015,01,30,11,30,4.90
2015,01,30,11,31,4.90
2015,01,30,11,32,5.00
2015,01,30,11,33,5.00
2015,01,30,11,34,5.00
2015,01,30,11,35,5.10
2015,01,30,11,36,5.10
2015,01,30,11,37,5.10
2015,01,30,11,38,5.10
2015,01,30,11,39,5.10
2015,01,30,11,40,5.10
2015,01,30,11,41,5.10
2015,01,30,11,42,5.10
2015,01,30,11,43,5.10
2015,01,30,11,44,5.00
2015,01,30,11,45,5.00
2015,01,30,11,46,5.00
2015,01,30,11,47,5.00
2015,01,30,11,48,5.00
2015,01,30,11,49,5.00
2015,01,30,11,50,5.00
2015,01,30,11,51,5.00
2015,01,30,11,52,5.00
2015,01,30,11,53,5.10
2015,01,30,11,54,5.10
2015,01,30,11,55,5.10
2015,01,30,11,56,5.10
2015,01,30,11,57,5.10
2015,01,30,11,58,5.10
2015,01,30,11,59,5.10
2015,01,30,12,00,5.20
2015,01,30,12,01,5.20
2015,01,30,12,02,5.20
2015,01,30,12,03,5.20
2015,01,30,12,04,5.30
2015,01,30,12,05,5.30
2015,01,30,12,06,5.40
2015,01,30,12,07,5.50
2015,01,30,12,08,5.50
2015,01,30,12,09,5.60
2015,01,30,12,10,5.70
2015,01,30,12,11,5.80
2015,01,30,12,12,5.80
2015,01,30,12,13,5.80
2015,01,30,12,14,5.90
2015,01,30,12,15,5.90
2015,01,30,12,16,5.90
2015,01,30,12,17,5.90
2015,01,30,12,18,6.00
2015,01,30,12,19,6.00
2015,01,30,12,20,6.00
2015,01,30,12,21,6.00
2015,01,30,12,22,6.10
2015,01,30,12,23,6.10
2015,01,30,12,24,6.20
2015,01,30,12,25,6.20
2015,01,30,12,26,6.20
2015,01,30,12,27,6.30
2015,01,30,12,28,6.30
2015,01,30,12,29,6.30
2015,01,30,12,30,6.40
2015,01,30,12,31,6.40
2015,01,30,12,32,6.50
2015,01,30,12,33,6.50
2015,01,30,12,34,6.50
2015,01,30,12,35,6.50
2015,01,30,12,36,6.50
2015,01,30,12,37,6.50
2015,01,30,12,38,6.60
2015,01,30,12,39,6.60
2015,01,30,12,40,6.60
2015,01,30,12,41,6.60
2015,01,30,12,42,6.70
2015,01,30,12,43,6.70
2015,01,30,12,44,6.70
2015,01,30,12,45,6.70
2015,01,30,12,46,6.70
2015,01,30,12,47,6.70
2015,01,30,12,48,6.70
2015,01,30,12,49,6.70
2015,01,30,12,50,6.70
2015,01,30,12,51,6.70
2015,01,30,12,52,6.70
2015,01,30,12,53,6.70
2015,01,30,12,54,6.70
2015,01,30,12,55,6.70
2015,01,30,12,56,6.80
2015,01,30,12,57,6.80
2015,01,30,12,58,6.80
2015,01,30,12,59,6.80
2015,01,30,13,00,6.90
2015,01,30,13,01,6.90
2015,01,30,13,02,7.00
2015,01,30,13,03,7.00
2015,01,30,13,04,7.10
2015,01,30,13,05,7.10
2015,01,30,13,06,7.20
2015,01,30,13,07,7.20
2015,01,30,13,08,7.30
2015,01,30,13,09,7.30
2015,01,30,13,10,7.30
2015,01,30,13,11,7.30
2015,01,30,13,12,7.30
2015,01,30,13,13,7.30
2015,01,30,13,14,7.40
2015,01,30,13,15,7.40
2015,01,30,13,16,7.40
2015,01,30,13,17,7.50
2015,01,30,13,18,7.60
2015,01,30,13,19,7.60
2015,01,30,13,20,7.70
2015,01,30,13,21,7.70
2015,01,30,13,22,7.80
2015,01,30,13,23,7.80
2015,01,30,13,24,7.80
2015,01,30,13,25,7.80
2015,01,30,13,26,7.90
2015,01,30,13,27,7.90
2015,01,30,13,28,8.00
2015,01,30,13,29,8.00
2015,01,30,13,30,8.00
2015,01,30,13,31,8.00
2015,01,30,13,32,8.10
2015,01,30,13,33,8.10
2015,01,30,13,34,8.10
2015,01,30,13,35,8.10
2015,01,30,13,36,8.10
2015,01,30,13,37,8.20
2015,01,30,13,38,8.20
2015,01,30,13,39,8.20
2015,01,30,13,40,8.20
2015,01,30,13,41,8.30
2015,01,30,13,42,8.30
2015,01,30,13,43,8.30
2015,01,30,13,44,8.30
2015,01,30,13,45,8.40
2015,01,30,13,46,8.40
2015,01,30,13,47,8.40
2015,01,30,13,48,8.40
2015,01,30,13,49,8.40
2015,01,30,13,50,8.50
2015,01,30,13,51,8.50
2015,01,30,13,52,8.60
2015,01,30,13,53,8.60
2015,01,30,13,54,8.60
2015,01,30,13,55,8.60
2015,01,30,13,56,8.70
2015,01,30,13,57,8.70
2015,01,30,13,58,8.70
2015,01,30,13,59,8.80
2015,01,30,14,00,8.80
2015,01,30,14,01,8.80
2015,01,30,14,02,8.80
2015,01,30,14,03,8.80
2015,01,30,14,04,8.80
2015,01,30,14,05,8.90
2015,01,30,14,06,8.90
2015,01,30,14,07,8.90
2015,01,30,14,08,9.00
2015,01,30,14,09,9.00
2015,01,30,14,10,9.10
2015,01,30,14,11,9.10
2015,01,30,14,12,9.10
2015,01,30,14,13,9.10
2015,01,30,14,14,9.20
2015,01,30,14,15,9.20
2015,01,30,14,16,9.20
2015,01,30,14,17,9.30
2015,01,30,14,18,9.30
2015,01,30,14,19,9.20
2015,01,30,14,20,9.20
2015,01,30,14,21,9.20
2015,01,30,14,22,9.10
2015,01,30,14,23,9.10
2015,01,30,14,24,9.10
2015,01,30,14,25,9.10
2015,01,30,14,26,9.10
2015,01,30,14,27,9.10
2015,01,30,14,28,9.10
2015,01,30,14,29,9.10
2015,01,30,14,30,9.10
2015,01,30,14,31,9.10
2015,01,30,14,32,9.10
2015,01,30,14,33,9.10
2015,01,30,14,34,9.10
2015,01,30,14,35,9.10
2015,01,30,14,36,9.00
2015,01,30,14,37,9.00
2015,01,30,14,38,9.00
2015,01,30,14,39,8.90
2015,01,30,14,40,8.90
2015,01,30,14,41,8.90
2015,01,30,14,42,8.90
2015,01,30,14,43,8.90
2015,01,30,14,44,8.90
2015,01,30,14,45,8.90
2015,01,30,14,46,8.80
2015,01,30,14,47,8.80
2015,01,30,14,48,8.80
2015,01,30,14,49,8.80
2015,01,30,14,50,8.80
2015,01,30,14,51,8.70
2015,01,30,14,52,8.70
2015,01,30,14,53,8.70
2015,01,30,14,54,8.70
2015,01,30,14,55,8.70
2015,01,30,14,56,8.60
2015,01,30,14,57,8.60
2015,01,30,14,58,8.60
2015,01,30,14,59,8.60
2015,01,30,15,00,8.60
2015,01,30,15,01,8.60
2015,01,30,15,02,8.60
2015,01,30,15,03,8.60
2015,01,30,15,04,8.60
2015,01,30,15,05,8.60
2015,01,30,15,06,8.60
2015,01,30,15,07,8.60
2015,01,30,15,08,8.60
2015,01,30,15,09,8.60
2015,01,30,15,10,8.60
2015,01,30,15,11,8.60
2015,01,30,15,12,8.60
2015,01,30,15,13,8.70
2015,01,30,15,14,8.70
2015,01,30,15,15,8.70
2015,01,30,15,16,8.70
2015,01,30,15,17,8.70
2015,01,30,15,18,8.70
2015,01,30,15,19,8.70
2015,01,30,15,20,8.80
2015,01,30,15,21,8.80
2015,01,30,15,22,8.80
2015,01,30,15,23,8.90
2015,01,30,15,24,8.90
2015,01,30,15,25,8.90
2015,01,30,15,26,9.00
2015,01,30,15,27,9.00
2015,01,30,15,28,8.90
2015,01,30,15,29,8.90
2015,01,30,15,30,8.90
2015,01,30,15,31,8.90
2015,01,30,15,32,8.90
2015,01,30,15,33,8.80
2015,01,30,15,34,8.80
2015,01,30,15,35,8.80
2015,01,30,15,36,8.80
2015,01,30,15,37,8.80
2015,01,30,15,38,8.80
2015,01,30,15,39,8.80
2015,01,30,15,40,8.80
2015,01,30,15,41,8.80
2015,01,30,15,42,8.80
2015,01,30,15,43,8.80
2015,01,30,15,44,8.80
2015,01,30,15,45,8.80
2015,01,30,15,46,8.80
2015,01,30,15,47,8.80
2015,01,30,15,48,8.80
2015,01,30,15,49,8.80
2015,01,30,15,50,8.80
2015,01,30,15,51,8.80
2015,01,30,15,52,8.80
2015,01,30,15,53,8.80
2015,01,30,15,54,8.80
2015,01,30,15,55,8.80
2015,01,30,15,56,8.80
2015,01,30,15,57,8.80
2015,01,30,15,58,8.70
2015,01,30,15,59,8.70
2015,01,30,16,00,8.70
2015,01,30,16,01,8.70
2015,01,30,16,02,8.70
2015,01,30,16,03,8.70
2015,01,30,16,04,8.70
2015,01,30,16,05,8.60
2015,01,30,16,06,8.60
2015,01,30,16,07,8.60
2015,01,30,16,08,8.60
2015,01,30,16,09,8.60
2015,01,30,16,10,8.60
2015,01,30,16,11,8.50
2015,01,30,16,12,8.50
2015,01,30,16,13,8.40
2015,01,30,16,14,8.40
2015,01,30,16,15,8.30
2015,01,30,16,16,8.30
2015,01,30,16,17,8.30
2015,01,30,16,18,8.20
2015,01,30,16,19,8.20
2015,01,30,16,20,8.20
2015,01,30,16,21,8.20
2015,01,30,16,22,8.20
2015,01,30,16,23,8.10
2015,01,30,16,24,8.10
2015,01,30,16,25,8.10
2015,01,30,16,26,8.10
2015,01,30,16,27,8.10
2015,01,30,16,28,8.10
2015,01,30,16,29,8.10
2015,01,30,16,30,8.10
2015,01,30,16,31,8.10
2015,01,30,16,32,8.10
2015,01,30,16,33,8.10
2015,01,30,16,34,8.10
2015,01,30,16,35,8.10
2015,01,30,16,36,8.10
2015,01,30,16,37,8.10
2015,01,30,16,38,8.10
2015,01,30,16,39,8.10
2015,01,30,16,40,8.10
2015,01,30,16,41,8.10
2015,01,30,16,42,8.10
2015,01,30,16,43,8.10
2015,01,30,16,44,8.10
2015,01,30,16,45,8.10
2015,01,30,16,46,8.10
2015,01,30,16,47,8.10
2015,01,30,16,48,8.10
2015,01,30,16,49,8.10
2015,01,30,16,50,8.10
2015,01,30,16,51,8.00
2015,01,30,16,52,8.00
2015,01,30,16,53,8.00
2015,01,30,16,54,8.00
2015,01,30,16,55,8.00
2015,01,30,16,56,8.00
2015,01,30,16,57,8.00
2015,01,30,16,58,8.00
2015,01,30,16,59,8.00
2015,01,30,17,00,8.00
2015,01,30,17,01,8.00
2015,01,30,17,02,8.00
2015,01,30,17,03,8.00
2015,01,30,17,04,8.00
2015,01,30,17,05,7.90
2015,01,30,17,06,7.90
2015,01,30,17,07,7.90
2015,01,30,17,08,7.90
2015,01,30,17,09,7.90
2015,01,30,17,10,7.90
2015,01,30,17,11,7.90
2015,01,30,17,12,7.90
2015,01,30,17,13,7.90
2015,01,30,17,14,7.90
2015,01,30,17,15,7.90
2015,01,30,17,16,7.90
2015,01,30,17,17,7.90
2015,01,30,17,18,7.80
2015,01,30,17,19,7.80
2015,01,30,17,20,7.80
2015,01,30,17,21,7.80
2015,01,30,17,22,7.80
2015,01,30,17,23,7.80
2015,01,30,17,24,7.80
2015,01,30,17,25,7.80
2015,01,30,17,26,7.80
2015,01,30,17,27,7.80
2015,01,30,17,28,7.70
2015,01,30,17,29,7.70
2015,01,30,17,30,7.70
2015,01,30,17,31,7.70
2015,01,30,17,32,7.70
2015,01,30,17,33,7.70
2015,01,30,17,34,7.70
2015,01,30,17,35,7.70
2015,01,30,17,36,7.70
2015,01,30,17,37,7.70
2015,01,30,17,38,7.70
2015,01,30,17,39,7.70
2015,01,30,17,40,7.70
2015,01,30,17,41,7.60
2015,01,30,17,42,7.60
2015,01,30,17,43,7.60
2015,01,30,17,44,7.60
2015,01,30,17,45,7.60
2015,01,30,17,46,7.60
2015,01,30,17,47,7.60
2015,01,30,17,48,7.60
2015,01,30,17,49,7.50
2015,01,30,17,50,7.50
2015,01,30,17,51,7.50
2015,01,30,17,52,7.50
2015,01,30,17,53,7.40
2015,01,30,17,54,7.40
2015,01,30,17,55,7.40
2015,01,30,17,56,7.40
2015,01,30,17,57,7.40
2015,01,30,17,58,7.40
2015,01,30,17,59,7.40
2015,01,30,18,00,7.40
2015,01,30,18,01,7.30
2015,01,30,18,02,7.30
2015,01,30,18,03,7.30
2015,01,30,18,04,7.30
2015,01,30,18,05,7.30
2015,01,30,18,06,7.30